This demonstration page uses our WeatherBlox Daily Observations layout. Learn more.

Left ArrowRight Arrow

36.17497, -115.13722

Hourly Observations for January 5, 2016

Temp ( °F °C ) Dew Point ( °F °C ) Humidity (%) Winds ( mph kmh ) Pressure ( in mb ) Visibility ( mi km ) Precip ( " mm )
12:27 am 00:27 Cloudy 47 8.3 42 5.6 83 83 ESE 3 6 29.94 1014 10 16.0934 0 0
12:53 am 00:53 Cloudy 48 8.9 42 5.6 80 80 ESE 3 6 29.96 1014 10 16.0934 0 0
1:53 am 01:53 Cloudy 47 8.3 42 5.6 83 83 ESE 6 9 29.96 1014 10 16.0934 0 0
2:53 am 02:53 Cloudy 47 8.3 42 5.6 83 83 E 3 6 29.95 1014 10 16.0934 0 0
3:53 am 03:53 Cloudy 47 8.3 43 6.1 86 86 E 6 9 29.95 1014 10 16.0934 0 0
4:53 am 04:53 Cloudy 47 8.3 44 6.7 90 90 E 3 6 29.95 1014 10 16.0934 0 0
5:07 am 05:07 Cloudy 47 8.3 44 6.7 90 90 Calm 29.94 1014 10 16.0934 0 0
5:53 am 05:53 Cloudy 46 7.8 44 6.7 93 93 E 8 13 29.94 1014 10 16.0934 0 0
6:53 am 06:53 Cloudy 47 8.3 44 6.7 90 90 ESE 5 7 29.95 1014 10 16.0934 0 0
7:53 am 07:53 Cloudy 47 8.3 44 6.7 90 90 ESE 6 9 29.95 1014 10 16.0934 0 0
8:53 am 08:53 Cloudy with Light Rain 47 8.3 44 6.7 90 90 E 6 9 29.98 1015 10 16.0934 0 0.0254
9:40 am 09:40 Cloudy 46 8 45 7 93 93 E 8 13 29.94 1014 10 16.0934 0 0
9:53 am 09:53 Cloudy 47 8.3 45 7.2 93 93 E 7 11 29.97 1015 10 16.0934 0 0.0254
10:00 am 10:00 Cloudy 46 8 45 7 93 93 E 8 13 29.94 1014 10 16.0934 0 0
10:53 am 10:53 Cloudy 49 9.4 45 7.2 86 86 E 8 13 29.95 1014 10 16.0934 0 0
11:25 am 11:25 Cloudy 49 9.4 45 7.2 86 86 E 6 9 29.88 1012 10 16.0934 0 0
11:35 am 11:35 Cloudy 49 9.4 45 7.2 86 86 E 8 13 29.88 1012 10 16.0934 0 0
11:53 am 11:53 Cloudy 49 9.4 45 7.2 86 86 E 8 13 29.92 1013 10 16.0934 0 0
12:53 pm 12:53 Cloudy 49 9.4 46 7.8 90 90 ENE 7 11 29.88 1012 10 16.0934 0 0
1:10 pm 13:10 Cloudy 48 9 46 8 94 94 ENE 5 7 29.8 1009 10 16.0934 0 0
1:18 pm 13:18 Cloudy 48 9 46 8 94 94 E 5 7 29.8 1009 10 16.0934 0 0
1:53 pm 13:53 Cloudy with Light Rain 50 10 46 7.8 86 86 E 5 7 29.85 1011 10 16.0934 0 0.0254
2:53 pm 14:53 Cloudy 50 10 47 8.3 89 89 ESE 8 13 29.83 1010 10 16.0934 0 0.0254
3:10 pm 15:10 Cloudy with Light Rain 50 10 46 8 88 88 SSE 12 19 29.77 1008 8 12.87472 0 0
3:26 pm 15:26 Cloudy with Light Rain 50 10 46 8 88 88 SSE 10 17 29.77 1008 7 11.26538 0 0
3:53 pm 15:53 Cloudy with Light Rain 50 10 47 8.3 89 89 SSE 8 13 29.81 1010 6 9.65604 0.06 1.524
4:09 pm 16:09 Cloudy with Light Rain 50 10 47 8.3 89 89 SSE 8 13 29.77 1008 6 9.65604 0.01 0.254
4:53 pm 16:53 Cloudy with Light Rain 49 9.4 48 8.9 97 97 ESE 7 11 29.82 1010 9 14.48406 0.07 1.778
5:53 pm 17:53 Cloudy with Light Rain 49 9.4 48 8.9 97 97 ESE 7 11 29.81 1010 10 16.0934 0.01 0.254
6:16 pm 18:16 Cloudy with Light Rain 48 9 48 9 100 100 SE 8 13 29.77 1008 10 16.0934 0 0
6:25 pm 18:25 Cloudy with Light Rain 49 9.4 48 8.9 97 97 SE 7 11 29.77 1008 9 14.48406 0.01 0.254
6:53 pm 18:53 Cloudy with Light Rain 49 9.4 48 8.9 97 97 SE 6 9 29.81 1009 10 16.0934 0.02 0.508
7:05 pm 19:05 Cloudy 49 9.4 48 8.9 97 97 SE 7 11 29.74 1007 10 16.0934 0.01 0.254
7:21 pm 19:21 Cloudy 49 9.4 47 8.3 93 93 ESE 9 15 29.74 1007 10 16.0934 0.01 0.254
7:53 pm 19:53 Cloudy with Light Rain 49 9.4 47 8.3 93 93 ESE 9 15 29.81 1010 9 14.48406 0.02 0.508
8:53 pm 20:53 Cloudy with Light Rain 48 8.9 47 8.3 96 96 ESE 8 13 29.81 1010 10 16.0934 0.03 0.762
9:16 pm 21:16 Cloudy with Light Rain 48 9 46 8 94 94 SE 8 13 29.77 1008 9 14.48406 0 0
9:53 pm 21:53 Cloudy with Light Rain 48 8.9 47 8.3 96 96 SE 9 15 29.8 1009 8 12.87472 0.05 1.27
10:53 pm 22:53 Cloudy with Light Rain 48 8.9 46 7.8 93 93 SE 9 15 29.78 1009 10 16.0934 0 0.0254
11:53 pm 23:53 Cloudy 48 8.9 45 7.2 89 89 E 7 11 29.77 1008 10 16.0934 0.01 0.254

Powered by AerisWeather